Time,TemperatureF,DewpointF,PressureIn,WindDirection,WindDirectionDegrees,WindSpeedMPH,WindSpeedGustMPH,Humidity,HourlyPrecipIn,Conditions,Clouds,dailyrainin,SoftwareType,DateUTC
2013-05-02 00:00:00,57.3,53.8,30.25,NE,47,1.0,10.0,88,0.00,,OVC055,0.00,VWS V14.01,2013-05-02 04:00:00,
2013-05-02 00:01:00,57.3,53.8,30.25,NE,47,4.0,4.0,88,0.00,,OVC055,0.00,VWS V14.01,2013-05-02 04:01:00,
2013-05-02 00:06:00,57.3,53.5,30.25,East,85,2.0,7.0,87,0.00,,OVC055,0.00,VWS V14.01,2013-05-02 04:06:00,
2013-05-02 00:13:00,57.2,53.4,30.25,NE,50,8.0,10.0,87,0.00,,OVC055,0.00,VWS V14.01,2013-05-02 04:13:00,
2013-05-02 00:18:00,57.1,53.6,30.25,NNE,33,5.0,10.0,88,0.00,,OVC055,0.00,VWS V14.01,2013-05-02 04:18:00,
2013-05-02 00:23:00,57.1,53.6,30.25,NNE,27,2.0,10.0,88,0.00,,OVC055,0.00,VWS V14.01,2013-05-02 04:23:00,
2013-05-02 00:28:00,57.0,53.5,30.25,NW,310,1.0,10.0,88,0.00,,OVC055,0.00,VWS V14.01,2013-05-02 04:28:00,
2013-05-02 00:30:00,57.0,53.5,30.25,NE,38,3.0,10.0,88,0.00,,OVC055,0.00,VWS V14.01,2013-05-02 04:30:00,
2013-05-02 00:33:00,57.0,53.2,30.25,NNE,25,4.0,12.0,87,0.00,,OVC055,0.00,VWS V14.01,2013-05-02 04:33:00,
2013-05-02 00:38:00,56.9,53.4,30.25,ENE,61,3.0,12.0,88,0.00,,OVC055,0.00,VWS V14.01,2013-05-02 04:38:00,
2013-05-02 00:43:00,56.9,53.4,30.26,ENE,74,0.0,12.0,88,0.00,,OVC055,0.00,VWS V14.01,2013-05-02 04:43:00,
2013-05-02 00:48:00,56.9,53.1,30.26,NE,34,2.0,12.0,87,0.00,,OVC055,0.00,VWS V14.01,2013-05-02 04:48:00,
2013-05-02 00:53:00,56.8,53.3,30.25,NNE,29,5.0,12.0,88,0.00,,OVC055,0.00,VWS V14.01,2013-05-02 04:53:00,
2013-05-02 00:58:00,56.9,53.1,30.26,NE,51,5.0,12.0,87,0.00,,OVC055,0.00,VWS V14.01,2013-05-02 04:58:00,
2013-05-02 01:00:00,56.8,53.0,30.26,NNE,19,6.0,12.0,87,0.00,,OVC055,0.00,VWS V14.01,2013-05-02 05:00:00,
2013-05-02 01:03:00,56.9,53.1,30.25,NE,41,5.0,7.0,87,0.00,,OVC055,0.00,VWS V14.01,2013-05-02 05:03:00,
2013-05-02 01:08:00,56.9,53.1,30.25,NE,49,2.0,7.0,87,0.00,,OVC055,0.00,VWS V14.01,2013-05-02 05:08:00,
2013-05-02 01:13:00,56.9,53.1,30.25,NE,44,2.0,7.0,87,0.00,,OVC055,0.00,VWS V14.01,2013-05-02 05:13:00,
2013-05-02 01:18:00,56.8,53.0,30.25,NE,46,4.0,7.0,87,0.00,,OVC055,0.00,VWS V14.01,2013-05-02 05:18:00,
2013-05-02 01:23:00,56.8,53.0,30.25,NE,34,3.0,7.0,87,0.00,,OVC055,0.00,VWS V14.01,2013-05-02 05:23:00,
2013-05-02 01:28:00,56.8,53.0,30.25,ENE,57,3.0,7.0,87,0.00,,OVC055,0.00,VWS V14.01,2013-05-02 05:28:00,
2013-05-02 01:30:00,56.8,53.0,30.25,NNE,17,4.0,7.0,87,0.00,,OVC055,0.00,VWS V14.01,2013-05-02 05:30:00,
2013-05-02 01:33:00,56.7,52.9,30.25,NNE,32,4.0,6.0,87,0.00,,OVC055,0.00,VWS V14.01,2013-05-02 05:33:00,
2013-05-02 01:38:00,56.7,53.2,30.25,ENE,63,2.0,6.0,88,0.00,,OVC055,0.00,VWS V14.01,2013-05-02 05:38:00,
2013-05-02 01:43:00,56.6,52.8,30.25,NE,41,5.0,6.0,87,0.00,,OVC055,0.00,VWS V14.01,2013-05-02 05:43:00,
2013-05-02 01:48:00,56.6,52.8,30.25,NNE,27,4.0,8.0,87,0.00,,OVC055,0.00,VWS V14.01,2013-05-02 05:48:00,
2013-05-02 01:53:00,56.5,53.0,30.25,NNE,13,4.0,8.0,88,0.00,,OVC055,0.00,VWS V14.01,2013-05-02 05:53:00,
2013-05-02 01:58:00,56.4,52.6,30.25,NNE,15,3.0,8.0,87,0.00,,OVC055,0.00,VWS V14.01,2013-05-02 05:58:00,
2013-05-02 02:00:00,56.4,52.6,30.25,NE,38,4.0,8.0,87,0.00,,OVC055,0.00,VWS V14.01,2013-05-02 06:00:00,
2013-05-02 02:03:00,56.4,52.6,30.24,NNE,24,1.0,6.0,87,0.00,,OVC055,0.00,VWS V14.01,2013-05-02 06:03:00,
2013-05-02 02:08:00,56.3,52.5,30.24,NNE,33,7.0,9.0,87,0.00,,OVC055,0.00,VWS V14.01,2013-05-02 06:08:00,
2013-05-02 02:13:00,56.2,52.4,30.24,NNE,26,5.0,9.0,87,0.00,,OVC055,0.00,VWS V14.01,2013-05-02 06:13:00,
2013-05-02 02:18:00,56.2,52.7,30.24,NE,36,1.0,9.0,88,0.00,,OVC055,0.00,VWS V14.01,2013-05-02 06:18:00,
2013-05-02 02:23:00,56.1,52.6,30.24,NE,55,2.0,9.0,88,0.00,,OVC055,0.00,VWS V14.01,2013-05-02 06:23:00,
2013-05-02 02:28:00,56.1,52.6,30.24,NE,42,1.0,9.0,88,0.00,,OVC055,0.00,VWS V14.01,2013-05-02 06:28:00,
2013-05-02 02:30:00,56.1,52.6,30.24,NE,45,3.0,9.0,88,0.00,,OVC055,0.00,VWS V14.01,2013-05-02 06:30:00,
2013-05-02 02:33:00,56.1,52.6,30.23,North,355,3.0,8.0,88,0.00,,OVC055,0.00,VWS V14.01,2013-05-02 06:33:00,
2013-05-02 02:38:00,56.0,52.5,30.24,NNE,24,3.0,8.0,88,0.00,,OVC055,0.00,VWS V14.01,2013-05-02 06:38:00,
2013-05-02 02:43:00,55.9,52.7,30.23,NNE,27,3.0,8.0,89,0.00,,OVC055,0.00,VWS V14.01,2013-05-02 06:43:00,
2013-05-02 02:48:00,55.9,52.4,30.24,NE,42,3.0,8.0,88,0.00,,OVC055,0.00,VWS V14.01,2013-05-02 06:48:00,
2013-05-02 02:53:00,55.9,52.7,30.24,NNE,29,1.0,8.0,89,0.00,,OVC055,0.00,VWS V14.01,2013-05-02 06:53:00,
2013-05-02 02:58:00,55.8,52.3,30.24,NE,55,2.0,8.0,88,0.00,,OVC055,0.00,VWS V14.01,2013-05-02 06:58:00,
2013-05-02 03:00:00,55.8,52.3,30.24,North,5,4.0,8.0,88,0.00,,OVC055,0.00,VWS V14.01,2013-05-02 07:00:00,
2013-05-02 03:03:00,55.8,52.3,30.24,NE,37,1.0,5.0,88,0.00,,OVC055,0.00,VWS V14.01,2013-05-02 07:03:00,
2013-05-02 03:08:00,55.7,52.2,30.24,NE,40,4.0,8.0,88,0.00,,OVC055,0.00,VWS V14.01,2013-05-02 07:08:00,
2013-05-02 03:13:00,55.5,52.3,30.23,North,9,3.0,8.0,89,0.00,,OVC055,0.00,VWS V14.01,2013-05-02 07:13:00,
2013-05-02 03:18:00,55.4,52.2,30.23,NNE,23,2.0,8.0,89,0.00,,OVC055,0.00,VWS V14.01,2013-05-02 07:18:00,
2013-05-02 03:23:00,55.3,52.1,30.23,NE,36,3.0,8.0,89,0.00,,OVC055,0.00,VWS V14.01,2013-05-02 07:23:00,
2013-05-02 03:28:00,55.2,52.0,30.23,NNE,24,3.0,8.0,89,0.00,,OVC055,0.00,VWS V14.01,2013-05-02 07:28:00,
2013-05-02 03:30:00,55.2,52.0,30.23,NNE,24,2.0,8.0,89,0.00,,OVC055,0.00,VWS V14.01,2013-05-02 07:30:00,
2013-05-02 03:33:00,55.2,52.0,30.23,North,5,4.0,5.0,89,0.00,,OVC055,0.00,VWS V14.01,2013-05-02 07:33:00,
2013-05-02 03:38:00,55.1,51.9,30.23,North,5,4.0,5.0,89,0.00,,OVC055,0.00,VWS V14.01,2013-05-02 07:38:00,
2013-05-02 03:43:00,55.1,52.2,30.23,NNE,14,2.0,5.0,90,0.00,,OVC055,0.00,VWS V14.01,2013-05-02 07:43:00,
2013-05-02 03:48:00,55.1,52.2,30.23,NNE,23,4.0,5.0,90,0.00,,OVC055,0.00,VWS V14.01,2013-05-02 07:48:00,
2013-05-02 03:53:00,55.1,52.2,30.23,NNE,24,3.0,5.0,90,0.00,,OVC055,0.00,VWS V14.01,2013-05-02 07:53:00,
2013-05-02 03:58:00,55.1,52.2,30.23,NNE,24,1.0,5.0,90,0.00,,OVC055,0.00,VWS V14.01,2013-05-02 07:58:00,
2013-05-02 04:00:00,55.1,52.2,30.23,NNE,17,2.0,5.0,90,0.00,,OVC055,0.00,VWS V14.01,2013-05-02 08:00:00,
2013-05-02 04:03:00,55.1,52.2,30.23,North,5,1.0,4.0,90,0.00,,OVC055,0.00,VWS V14.01,2013-05-02 08:03:00,
2013-05-02 04:08:00,55.1,52.2,30.23,NE,34,3.0,4.0,90,0.00,,OVC055,0.00,VWS V14.01,2013-05-02 08:08:00,
2013-05-02 04:13:00,55.1,52.2,30.23,NE,34,1.0,4.0,90,0.00,,OVC055,0.00,VWS V14.01,2013-05-02 08:13:00,
2013-05-02 04:18:00,55.0,52.1,30.23,NE,45,3.0,4.0,90,0.00,,OVC055,0.00,VWS V14.01,2013-05-02 08:18:00,
2013-05-02 04:23:00,54.8,52.5,30.23,NE,38,4.0,6.0,92,0.00,,OVC055,0.00,VWS V14.01,2013-05-02 08:23:00,
2013-05-02 04:28:00,54.5,52.2,30.23,NE,36,3.0,6.0,92,0.00,,OVC055,0.00,VWS V14.01,2013-05-02 08:28:00,
2013-05-02 04:30:00,54.5,52.5,30.23,NE,40,3.0,6.0,93,0.00,,OVC055,0.00,VWS V14.01,2013-05-02 08:30:00,
2013-05-02 04:33:00,54.2,52.2,30.23,NNE,29,3.0,5.0,93,0.00,,OVC055,0.00,VWS V14.01,2013-05-02 08:33:00,
2013-05-02 04:38:00,54.0,52.6,30.22,North,11,4.0,6.0,95,0.00,,OVC055,0.00,VWS V14.01,2013-05-02 08:38:00,
2013-05-02 04:42:00,53.8,52.4,30.22,NE,34,3.0,6.0,95,0.00,,OVC055,0.00,VWS V14.01,2013-05-02 08:42:00,
2013-05-02 04:47:00,53.7,52.6,30.23,NNE,18,3.0,6.0,96,0.00,,OVC055,0.00,VWS V14.01,2013-05-02 08:47:00,
2013-05-02 04:52:00,53.6,52.5,30.23,NNE,15,3.0,6.0,96,0.00,,OVC055,0.00,VWS V14.01,2013-05-02 08:52:00,
2013-05-02 04:57:00,53.6,52.8,30.22,NNE,30,3.0,6.0,97,0.00,,OVC055,0.00,VWS V14.01,2013-05-02 08:57:00,
2013-05-02 05:00:00,53.5,52.7,30.22,NE,35,2.0,6.0,97,0.00,,OVC055,0.00,VWS V14.01,2013-05-02 09:00:00,
2013-05-02 05:02:00,53.5,52.7,30.22,NNE,16,2.0,5.0,97,0.00,,OVC055,0.00,VWS V14.01,2013-05-02 09:02:00,
2013-05-02 05:07:00,53.4,52.6,30.22,North,360,5.0,5.0,97,0.00,,OVC055,0.00,VWS V14.01,2013-05-02 09:07:00,
2013-05-02 05:12:00,53.4,52.8,30.22,North,350,3.0,5.0,98,0.00,,OVC055,0.00,VWS V14.01,2013-05-02 09:12:00,
2013-05-02 05:17:00,53.4,52.8,30.22,North,350,2.0,5.0,98,0.00,,OVC055,0.00,VWS V14.01,2013-05-02 09:17:00,
2013-05-02 05:22:00,53.4,52.8,30.22,NNW,348,4.0,5.0,98,0.00,,OVC055,0.00,VWS V14.01,2013-05-02 09:22:00,
2013-05-02 05:27:00,53.4,52.8,30.22,NNE,17,3.0,5.0,98,0.00,,OVC055,0.00,VWS V14.01,2013-05-02 09:27:00,
2013-05-02 05:30:00,53.4,52.8,30.22,NNE,17,2.0,5.0,98,0.00,,OVC055,0.00,VWS V14.01,2013-05-02 09:30:00,
2013-05-02 05:32:00,53.4,52.8,30.22,NNE,17,3.0,5.0,98,0.00,,OVC055,0.00,VWS V14.01,2013-05-02 09:32:00,
2013-05-02 05:37:00,53.4,52.8,30.22,North,10,2.0,5.0,98,0.00,,OVC055,0.00,VWS V14.01,2013-05-02 09:37:00,
2013-05-02 05:42:00,53.4,52.8,30.22,North,5,1.0,5.0,98,0.00,,OVC055,0.00,VWS V14.01,2013-05-02 09:42:00,
2013-05-02 05:47:00,53.4,52.8,30.22,NNE,13,1.0,5.0,98,0.00,,OVC055,0.00,VWS V14.01,2013-05-02 09:47:00,
2013-05-02 05:52:00,53.4,52.8,30.23,NNE,13,0.0,5.0,98,0.00,,OVC055,0.00,VWS V14.01,2013-05-02 09:52:00,
2013-05-02 05:57:00,53.4,52.8,30.23,NNE,17,1.0,5.0,98,0.00,,OVC055,0.00,VWS V14.01,2013-05-02 09:57:00,
2013-05-02 06:00:00,53.4,52.8,30.22,NNE,17,1.0,5.0,98,0.00,,OVC055,0.00,VWS V14.01,2013-05-02 10:00:00,
2013-05-02 06:02:00,53.4,52.8,30.22,North,355,4.0,4.0,98,0.00,,OVC055,0.00,VWS V14.01,2013-05-02 10:02:00,
2013-05-02 06:07:00,53.4,52.8,30.23,NE,42,2.0,5.0,98,0.00,,OVC055,0.00,VWS V14.01,2013-05-02 10:07:00,
2013-05-02 06:12:00,53.5,53.0,30.23,North,11,3.0,5.0,98,0.01,,OVC055,0.01,VWS V14.01,2013-05-02 10:12:00,
2013-05-02 06:17:00,53.5,53.0,30.23,North,9,2.0,5.0,98,0.01,,OVC055,0.01,VWS V14.01,2013-05-02 10:17:00,
2013-05-02 06:22:00,53.5,53.0,30.23,North,9,1.0,5.0,98,0.01,,OVC055,0.01,VWS V14.01,2013-05-02 10:22:00,
2013-05-02 06:27:00,53.5,53.0,30.23,North,9,1.0,5.0,98,0.01,,OVC055,0.01,VWS V14.01,2013-05-02 10:27:00,
2013-05-02 06:30:00,53.5,53.0,30.23,North,9,0.0,5.0,98,0.01,,OVC055,0.01,VWS V14.01,2013-05-02 10:30:00,
2013-05-02 06:32:00,53.5,53.0,30.23,North,9,0.0,2.0,98,0.01,,OVC055,0.01,VWS V14.01,2013-05-02 10:32:00,
2013-05-02 06:37:00,53.5,53.0,30.23,North,9,2.0,3.0,98,0.01,,OVC055,0.01,VWS V14.01,2013-05-02 10:37:00,
2013-05-02 06:42:00,53.6,53.0,30.23,North,9,2.0,3.0,98,0.01,,OVC055,0.01,VWS V14.01,2013-05-02 10:42:00,
2013-05-02 06:47:00,53.6,53.0,30.24,NNE,15,4.0,4.0,98,0.01,,OVC055,0.01,VWS V14.01,2013-05-02 10:47:00,
2013-05-02 06:52:00,53.7,53.2,30.23,NE,34,1.0,5.0,98,0.01,,OVC055,0.01,VWS V14.01,2013-05-02 10:52:00,
2013-05-02 06:57:00,53.7,53.2,30.24,NNE,22,2.0,5.0,98,0.01,,OVC055,0.01,VWS V14.01,2013-05-02 10:57:00,
2013-05-02 07:00:00,53.7,53.2,30.24,NNE,28,3.0,5.0,98,0.01,,OVC055,0.01,VWS V14.01,2013-05-02 11:00:00,
2013-05-02 07:02:00,53.7,53.2,30.24,NE,35,2.0,4.0,98,0.01,,OVC055,0.01,VWS V14.01,2013-05-02 11:02:00,
2013-05-02 07:07:00,53.7,53.2,30.24,NNE,20,3.0,5.0,98,0.01,,OVC055,0.01,VWS V14.01,2013-05-02 11:07:00,
2013-05-02 07:12:00,53.7,53.2,30.24,NNE,26,2.0,6.0,98,0.01,,OVC055,0.01,VWS V14.01,2013-05-02 11:12:00,
2013-05-02 07:17:00,53.6,53.0,30.24,NE,38,3.0,6.0,98,0.01,,OVC055,0.01,VWS V14.01,2013-05-02 11:17:00,
2013-05-02 07:22:00,53.6,53.0,30.24,NE,35,2.0,6.0,98,0.02,,OVC055,0.02,VWS V14.01,2013-05-02 11:22:00,
2013-05-02 07:27:00,53.7,53.4,30.24,NNE,26,4.0,6.0,99,0.02,,OVC055,0.02,VWS V14.01,2013-05-02 11:27:00,
2013-05-02 07:30:00,53.7,53.4,30.24,NNE,25,4.0,6.0,99,0.02,,OVC055,0.02,VWS V14.01,2013-05-02 11:30:00,
2013-05-02 07:32:00,53.6,53.3,30.24,NE,34,3.0,6.0,99,0.01,,OVC055,0.02,VWS V14.01,2013-05-02 11:32:00,
2013-05-02 07:37:00,53.6,53.3,30.24,NNE,13,2.0,6.0,99,0.01,,OVC055,0.02,VWS V14.01,2013-05-02 11:37:00,
2013-05-02 07:42:00,53.6,53.3,30.24,NNE,27,2.0,6.0,99,0.01,,OVC055,0.02,VWS V14.01,2013-05-02 11:42:00,
2013-05-02 07:47:00,53.6,53.3,30.24,North,10,3.0,6.0,99,0.01,,OVC055,0.02,VWS V14.01,2013-05-02 11:47:00,
2013-05-02 07:52:00,53.6,53.3,30.25,NNE,21,2.0,6.0,99,0.01,,OVC055,0.02,VWS V14.01,2013-05-02 11:52:00,
2013-05-02 07:57:00,53.7,53.4,30.25,NNE,22,3.0,6.0,99,0.02,,OVC055,0.03,VWS V14.01,2013-05-02 11:57:00,
2013-05-02 08:00:00,53.6,53.3,30.25,NNE,22,3.0,6.0,99,0.02,,OVC055,0.03,VWS V14.01,2013-05-02 12:00:00,
2013-05-02 08:02:00,53.6,53.3,30.25,NNE,24,4.0,4.0,99,0.02,,OVC055,0.03,VWS V14.01,2013-05-02 12:02:00,
2013-05-02 08:07:00,53.7,53.4,30.25,NNE,15,2.0,5.0,99,0.02,,OVC055,0.03,VWS V14.01,2013-05-02 12:07:00,
2013-05-02 08:12:00,53.6,53.3,30.25,NNE,28,2.0,5.0,99,0.03,,OVC055,0.04,VWS V14.01,2013-05-02 12:12:00,
2013-05-02 08:17:00,53.6,53.3,30.25,NNE,23,2.0,5.0,99,0.03,,OVC055,0.04,VWS V14.01,2013-05-02 12:17:00,
2013-05-02 08:22:00,53.6,53.3,30.25,NNE,32,2.0,5.0,99,0.03,,OVC055,0.04,VWS V14.01,2013-05-02 12:22:00,
2013-05-02 08:27:00,53.7,53.4,30.26,NNE,30,1.0,5.0,99,0.03,,OVC055,0.04,VWS V14.01,2013-05-02 12:27:00,
2013-05-02 08:30:00,53.7,53.4,30.26,NNE,32,3.0,5.0,99,0.03,,OVC055,0.04,VWS V14.01,2013-05-02 12:30:00,
2013-05-02 08:32:00,53.6,53.3,30.26,NNE,31,2.0,5.0,99,0.02,,OVC055,0.04,VWS V14.01,2013-05-02 12:32:00,
2013-05-02 08:37:00,53.7,53.4,30.26,NNE,15,2.0,8.0,99,0.02,,OVC055,0.04,VWS V14.01,2013-05-02 12:37:00,
2013-05-02 08:42:00,53.7,53.4,30.26,NNE,19,2.0,8.0,99,0.02,,OVC055,0.04,VWS V14.01,2013-05-02 12:42:00,
2013-05-02 08:47:00,53.7,53.4,30.26,NNE,17,3.0,8.0,99,0.02,,OVC055,0.04,VWS V14.01,2013-05-02 12:47:00,
2013-05-02 08:52:00,53.7,53.4,30.26,North,355,3.0,8.0,99,0.02,,OVC055,0.04,VWS V14.01,2013-05-02 12:52:00,
2013-05-02 08:57:00,53.7,53.4,30.26,NNE,17,2.0,8.0,99,0.02,,OVC055,0.04,VWS V14.01,2013-05-02 12:57:00,
2013-05-02 09:00:00,53.7,53.4,30.26,North,355,3.0,8.0,99,0.02,,OVC055,0.04,VWS V14.01,2013-05-02 13:00:00,
2013-05-02 09:02:00,53.8,53.5,30.26,NNE,32,2.0,4.0,99,0.01,,OVC055,0.04,VWS V14.01,2013-05-02 13:02:00,
2013-05-02 09:07:00,53.7,53.4,30.26,NNE,22,2.0,5.0,99,0.01,,OVC055,0.04,VWS V14.01,2013-05-02 13:07:00,
2013-05-02 09:12:00,53.9,53.6,30.26,NNE,23,1.0,5.0,99,0.01,,OVC055,0.04,VWS V14.01,2013-05-02 13:12:00,
2013-05-02 09:17:00,53.8,53.5,30.26,NNE,24,2.0,5.0,99,0.01,,OVC055,0.04,VWS V14.01,2013-05-02 13:17:00,
2013-05-02 09:22:00,53.9,53.6,30.27,NNE,28,3.0,5.0,99,0.01,,OVC055,0.04,VWS V14.01,2013-05-02 13:22:00,
2013-05-02 09:27:00,53.9,53.6,30.26,NNE,19,5.0,6.0,99,0.01,,OVC055,0.04,VWS V14.01,2013-05-02 13:27:00,
2013-05-02 09:30:00,53.9,53.6,30.27,NNE,30,4.0,6.0,99,0.01,,OVC055,0.04,VWS V14.01,2013-05-02 13:30:00,
2013-05-02 09:32:00,53.9,53.6,30.27,North,355,4.0,5.0,99,0.00,,OVC055,0.04,VWS V14.01,2013-05-02 13:32:00,
2013-05-02 09:37:00,54.1,53.8,30.27,North,10,2.0,5.0,99,0.00,,OVC055,0.04,VWS V14.01,2013-05-02 13:37:00,
2013-05-02 09:42:00,54.1,53.8,30.26,NNE,30,2.0,5.0,99,0.00,,OVC055,0.04,VWS V14.01,2013-05-02 13:42:00,
2013-05-02 09:47:00,54.1,53.5,30.27,North,10,4.0,5.0,98,0.00,,OVC055,0.04,VWS V14.01,2013-05-02 13:47:00,
2013-05-02 09:52:00,54.2,53.7,30.27,NNE,19,3.0,5.0,98,0.00,,OVC055,0.04,VWS V14.01,2013-05-02 13:52:00,
2013-05-02 09:57:00,54.3,54.0,30.27,NNE,24,3.0,5.0,99,0.00,,OVC055,0.04,VWS V14.01,2013-05-02 13:57:00,
2013-05-02 10:00:00,54.2,53.7,30.27,NNE,32,3.0,5.0,98,0.00,,OVC055,0.04,VWS V14.01,2013-05-02 14:00:00,
2013-05-02 10:02:00,54.2,53.7,30.27,NNE,22,4.0,5.0,98,0.00,,OVC055,0.04,VWS V14.01,2013-05-02 14:02:00,
2013-05-02 10:07:00,54.1,53.5,30.27,North,355,5.0,6.0,98,0.00,,OVC055,0.04,VWS V14.01,2013-05-02 14:07:00,
2013-05-02 10:12:00,54.2,53.7,30.27,NNE,28,3.0,6.0,98,0.00,,OVC055,0.04,VWS V14.01,2013-05-02 14:12:00,
2013-05-02 10:17:00,54.2,53.7,30.27,North,360,4.0,6.0,98,0.00,,OVC055,0.04,VWS V14.01,2013-05-02 14:17:00,
2013-05-02 10:22:00,54.2,53.7,30.27,NE,40,4.0,6.0,98,0.00,,OVC055,0.04,VWS V14.01,2013-05-02 14:22:00,
2013-05-02 10:27:00,54.2,53.7,30.27,NNE,31,3.0,7.0,98,0.00,,OVC055,0.04,VWS V14.01,2013-05-02 14:27:00,
2013-05-02 10:30:00,54.3,53.8,30.27,NNE,25,6.0,7.0,98,0.00,,OVC055,0.04,VWS V14.01,2013-05-02 14:30:00,
2013-05-02 10:31:00,54.4,53.8,30.28,NNE,21,3.0,6.0,98,0.00,,OVC055,0.04,VWS V14.01,2013-05-02 14:31:00,
2013-05-02 10:36:00,54.4,53.8,30.28,NNE,32,6.0,10.0,98,0.00,,OVC055,0.04,VWS V14.01,2013-05-02 14:36:00,
2013-05-02 10:41:00,54.4,53.8,30.28,NNE,19,3.0,10.0,98,0.00,,OVC055,0.04,VWS V14.01,2013-05-02 14:41:00,
2013-05-02 10:46:00,54.4,53.8,30.28,NNE,27,2.0,10.0,98,0.00,,OVC055,0.04,VWS V14.01,2013-05-02 14:46:00,
2013-05-02 10:51:00,54.3,53.5,30.28,North,355,3.0,10.0,97,0.00,,OVC055,0.04,VWS V14.01,2013-05-02 14:51:00,
2013-05-02 10:56:00,54.4,53.6,30.28,North,360,5.0,10.0,97,0.00,,OVC055,0.04,VWS V14.01,2013-05-02 14:56:00,
2013-05-02 11:00:00,54.3,53.5,30.28,North,355,5.0,10.0,97,0.00,,OVC055,0.04,VWS V14.01,2013-05-02 15:00:00,
2013-05-02 11:01:00,54.3,53.8,30.28,NNE,13,3.0,5.0,98,0.00,,OVC055,0.04,VWS V14.01,2013-05-02 15:01:00,
2013-05-02 11:06:00,54.3,53.8,30.28,NNE,28,4.0,6.0,98,0.00,,OVC055,0.04,VWS V14.01,2013-05-02 15:06:00,
2013-05-02 11:11:00,54.4,53.8,30.28,North,5,4.0,6.0,98,0.00,,OVC055,0.04,VWS V14.01,2013-05-02 15:11:00,
2013-05-02 11:16:00,54.5,54.0,30.28,North,9,3.0,6.0,98,0.00,,OVC055,0.04,VWS V14.01,2013-05-02 15:16:00,
2013-05-02 11:21:00,54.5,54.0,30.28,NE,39,4.0,6.0,98,0.00,,OVC055,0.04,VWS V14.01,2013-05-02 15:21:00,
2013-05-02 11:26:00,54.5,53.7,30.28,NNE,15,4.0,6.0,97,0.00,,OVC055,0.04,VWS V14.01,2013-05-02 15:26:00,
2013-05-02 11:30:00,54.6,54.0,30.28,NNE,17,2.0,6.0,98,0.00,,OVC055,0.04,VWS V14.01,2013-05-02 15:30:00,
2013-05-02 11:31:00,54.9,54.3,30.28,NNE,22,3.0,3.0,98,0.00,,OVC055,0.04,VWS V14.01,2013-05-02 15:31:00,
2013-05-02 11:36:00,55.0,54.2,30.28,NNE,30,2.0,6.0,97,0.00,,OVC055,0.04,VWS V14.01,2013-05-02 15:36:00,
2013-05-02 11:41:00,55.2,54.4,30.28,North,5,4.0,7.0,97,0.00,,OVC055,0.04,VWS V14.01,2013-05-02 15:41:00,
2013-05-02 11:46:00,55.2,54.4,30.28,NNE,15,3.0,7.0,97,0.00,,OVC055,0.04,VWS V14.01,2013-05-02 15:46:00,
2013-05-02 11:51:00,55.3,54.5,30.28,NE,34,3.0,7.0,97,0.00,,OVC055,0.04,VWS V14.01,2013-05-02 15:51:00,
2013-05-02 11:56:00,55.5,54.7,30.28,NNE,17,5.0,7.0,97,0.00,,OVC055,0.04,VWS V14.01,2013-05-02 15:56:00,
2013-05-02 12:00:00,55.7,54.9,30.28,NE,36,4.0,7.0,97,0.00,,OVC055,0.04,VWS V14.01,2013-05-02 16:00:00,
2013-05-02 12:01:00,55.8,54.7,30.28,NNE,22,2.0,5.0,96,0.00,,OVC055,0.04,VWS V14.01,2013-05-02 16:01:00,
2013-05-02 12:06:00,56.0,54.9,30.28,NNE,31,1.0,8.0,96,0.00,,OVC055,0.04,VWS V14.01,2013-05-02 16:06:00,
2013-05-02 12:11:00,56.2,55.1,30.28,NNE,27,4.0,8.0,96,0.00,,OVC055,0.04,VWS V14.01,2013-05-02 16:11:00,
2013-05-02 12:16:00,56.3,54.9,30.29,NNE,26,4.0,8.0,95,0.00,,OVC055,0.04,VWS V14.01,2013-05-02 16:16:00,
2013-05-02 12:21:00,56.4,55.3,30.29,NNE,26,1.0,8.0,96,0.00,,OVC055,0.04,VWS V14.01,2013-05-02 16:21:00,
2013-05-02 12:26:00,56.4,55.0,30.28,North,5,4.0,8.0,95,0.00,,OVC055,0.04,VWS V14.01,2013-05-02 16:26:00,
2013-05-02 12:30:00,56.5,55.1,30.28,North,9,3.0,8.0,95,0.00,,OVC055,0.04,VWS V14.01,2013-05-02 16:30:00,
2013-05-02 12:31:00,56.5,55.1,30.28,NNE,25,3.0,4.0,95,0.00,,OVC055,0.04,VWS V14.01,2013-05-02 16:31:00,
2013-05-02 12:36:00,56.9,55.5,30.28,NE,38,2.0,5.0,95,0.00,,OVC055,0.04,VWS V14.01,2013-05-02 16:36:00,
2013-05-02 12:41:00,57.2,55.8,30.28,NNE,15,7.0,8.0,95,0.00,,OVC055,0.04,VWS V14.01,2013-05-02 16:41:00,
2013-05-02 12:46:00,57.7,56.3,30.28,NNE,17,4.0,8.0,95,0.00,,OVC055,0.04,VWS V14.01,2013-05-02 16:46:00,
2013-05-02 12:51:00,57.8,55.8,30.28,NNE,22,4.0,9.0,93,0.00,,OVC055,0.04,VWS V14.01,2013-05-02 16:51:00,
2013-05-02 12:56:00,57.8,56.1,30.28,NNE,12,5.0,9.0,94,0.00,,OVC055,0.04,VWS V14.01,2013-05-02 16:56:00,
2013-05-02 13:00:00,57.8,55.8,30.28,NNE,24,5.0,9.0,93,0.00,,OVC055,0.04,VWS V14.01,2013-05-02 17:00:00,
2013-05-02 13:01:00,57.9,56.2,30.28,NNE,33,6.0,6.0,94,0.00,,OVC055,0.04,VWS V14.01,2013-05-02 17:01:00,
2013-05-02 13:06:00,58.2,56.5,30.28,NE,34,3.0,7.0,94,0.00,,OVC055,0.04,VWS V14.01,2013-05-02 17:06:00,
2013-05-02 13:11:00,58.5,56.2,30.27,NNE,13,9.0,9.0,92,0.00,,OVC055,0.04,VWS V14.01,2013-05-02 17:11:00,
2013-05-02 13:16:00,58.7,56.4,30.27,NE,43,5.0,9.0,92,0.00,,OVC055,0.04,VWS V14.01,2013-05-02 17:16:00,
2013-05-02 13:21:00,58.8,56.5,30.27,NNE,31,5.0,9.0,92,0.00,,OVC055,0.04,VWS V14.01,2013-05-02 17:21:00,
2013-05-02 13:26:00,58.7,56.1,30.27,NNE,29,5.0,9.0,91,0.00,,OVC055,0.04,VWS V14.01,2013-05-02 17:26:00,
2013-05-02 13:30:00,58.5,55.9,30.27,NE,44,6.0,9.0,91,0.00,,OVC055,0.04,VWS V14.01,2013-05-02 17:30:00,
2013-05-02 13:31:00,58.3,55.7,30.27,NNE,19,4.0,8.0,91,0.00,,OVC055,0.04,VWS V14.01,2013-05-02 17:31:00,
2013-05-02 13:36:00,58.1,55.8,30.27,NE,41,4.0,9.0,92,0.00,,OVC055,0.04,VWS V14.01,2013-05-02 17:36:00,
2013-05-02 13:41:00,58.1,56.1,30.27,NNE,28,4.0,9.0,93,0.00,,OVC055,0.04,VWS V14.01,2013-05-02 17:41:00,
2013-05-02 13:46:00,58.2,56.5,30.27,NNE,15,4.0,9.0,94,0.00,,OVC055,0.04,VWS V14.01,2013-05-02 17:46:00,
2013-05-02 13:51:00,58.2,56.2,30.27,NNE,22,5.0,9.0,93,0.00,,OVC055,0.04,VWS V14.01,2013-05-02 17:51:00,
2013-05-02 13:56:00,58.2,56.2,30.27,NNE,26,7.0,9.0,93,0.00,,OVC055,0.04,VWS V14.01,2013-05-02 17:56:00,
2013-05-02 14:00:00,58.2,56.2,30.26,NE,40,4.0,9.0,93,0.00,,OVC055,0.04,VWS V14.01,2013-05-02 18:00:00,
2013-05-02 14:01:00,58.3,56.3,30.27,NE,36,7.0,8.0,93,0.00,,OVC055,0.04,VWS V14.01,2013-05-02 18:01:00,
2013-05-02 14:06:00,58.1,55.8,30.27,NE,46,3.0,8.0,92,0.00,,OVC055,0.04,VWS V14.01,2013-05-02 18:06:00,
2013-05-02 14:11:00,58.1,55.8,30.27,NE,49,5.0,8.0,92,0.00,,OVC055,0.04,VWS V14.01,2013-05-02 18:11:00,
2013-05-02 14:16:00,58.1,56.1,30.27,NNE,28,4.0,8.0,93,0.00,,OVC055,0.04,VWS V14.01,2013-05-02 18:16:00,
2013-05-02 14:21:00,58.4,56.1,30.26,North,360,6.0,8.0,92,0.00,,OVC055,0.04,VWS V14.01,2013-05-02 18:21:00,
2013-05-02 14:26:00,58.9,56.6,30.26,NNE,29,4.0,8.0,92,0.00,,OVC055,0.04,VWS V14.01,2013-05-02 18:26:00,
2013-05-02 14:30:00,59.1,56.2,30.27,NE,42,1.0,8.0,90,0.00,,OVC055,0.04,VWS V14.01,2013-05-02 18:30:00,
2013-05-02 14:31:00,59.2,56.3,30.27,NNE,33,2.0,4.0,90,0.00,,OVC055,0.04,VWS V14.01,2013-05-02 18:31:00,
2013-05-02 14:36:00,59.5,56.3,30.27,NE,38,4.0,6.0,89,0.00,,OVC055,0.04,VWS V14.01,2013-05-02 18:36:00,
2013-05-02 14:41:00,59.5,56.3,30.27,NE,34,1.0,6.0,89,0.00,,OVC055,0.04,VWS V14.01,2013-05-02 18:41:00,
2013-05-02 14:46:00,59.6,56.4,30.27,NE,34,2.0,6.0,89,0.00,,OVC055,0.04,VWS V14.01,2013-05-02 18:46:00,
2013-05-02 14:51:00,59.8,56.6,30.26,NE,39,2.0,7.0,89,0.00,,OVC055,0.04,VWS V14.01,2013-05-02 18:51:00,
2013-05-02 14:56:00,59.8,56.2,30.26,NE,45,2.0,7.0,88,0.00,,OVC055,0.04,VWS V14.01,2013-05-02 18:56:00,
2013-05-02 15:00:00,59.9,56.3,30.26,NE,42,1.0,7.0,88,0.00,,OVC055,0.04,VWS V14.01,2013-05-02 19:00:00,
2013-05-02 15:01:00,59.8,55.9,30.26,NE,55,2.0,4.0,87,0.00,,OVC055,0.04,VWS V14.01,2013-05-02 19:01:00,
2013-05-02 15:06:00,59.7,56.2,30.26,NE,36,5.0,5.0,88,0.00,,OVC055,0.04,VWS V14.01,2013-05-02 19:06:00,
2013-05-02 15:11:00,59.8,56.2,30.26,NE,51,2.0,5.0,88,0.00,,OVC055,0.04,VWS V14.01,2013-05-02 19:11:00,
2013-05-02 15:16:00,59.6,55.7,30.26,North,355,2.0,5.0,87,0.00,,OVC055,0.04,VWS V14.01,2013-05-02 19:16:00,
2013-05-02 15:21:00,59.6,56.0,30.26,NE,37,3.0,6.0,88,0.00,,OVC055,0.04,VWS V14.01,2013-05-02 19:21:00,
2013-05-02 15:26:00,59.5,55.6,30.26,NNE,15,3.0,6.0,87,0.00,,OVC055,0.04,VWS V14.01,2013-05-02 19:26:00,
2013-05-02 15:30:00,59.5,56.0,30.26,North,11,4.0,6.0,88,0.00,,OVC055,0.04,VWS V14.01,2013-05-02 19:30:00,
2013-05-02 15:31:00,59.5,56.3,30.26,NE,36,2.0,5.0,89,0.00,,OVC055,0.04,VWS V14.01,2013-05-02 19:31:00,
2013-05-02 15:36:00,59.5,56.3,30.26,NE,35,3.0,6.0,89,0.00,,OVC055,0.04,VWS V14.01,2013-05-02 19:36:00,
2013-05-02 15:41:00,59.3,55.8,30.25,NE,46,3.0,7.0,88,0.00,,OVC055,0.04,VWS V14.01,2013-05-02 19:41:00,
2013-05-02 15:46:00,59.0,55.5,30.25,ENE,76,1.0,7.0,88,0.00,,OVC055,0.04,VWS V14.01,2013-05-02 19:46:00,
2013-05-02 15:51:00,58.9,55.4,30.25,NNE,32,3.0,7.0,88,0.00,,OVC055,0.04,VWS V14.01,2013-05-02 19:51:00,
2013-05-02 15:56:00,58.9,55.7,30.25,NNE,32,2.0,7.0,89,0.00,,OVC055,0.04,VWS V14.01,2013-05-02 19:56:00,
2013-05-02 16:00:00,58.9,55.4,30.25,ENE,62,3.0,7.0,88,0.00,,OVC055,0.04,VWS V14.01,2013-05-02 20:00:00,
2013-05-02 16:01:00,58.8,55.3,30.25,ENE,61,1.0,3.0,88,0.00,,OVC055,0.04,VWS V14.01,2013-05-02 20:01:00,
2013-05-02 16:06:00,58.7,55.5,30.25,NE,34,1.0,5.0,89,0.00,,OVC055,0.04,VWS V14.01,2013-05-02 20:06:00,
2013-05-02 16:11:00,58.7,55.2,30.25,NE,35,1.0,5.0,88,0.00,,OVC055,0.04,VWS V14.01,2013-05-02 20:11:00,
2013-05-02 16:16:00,58.6,55.1,30.25,ENE,66,2.0,5.0,88,0.00,,OVC055,0.04,VWS V14.01,2013-05-02 20:16:00,
2013-05-02 16:21:00,58.4,54.9,30.25,NE,43,1.0,5.0,88,0.00,,OVC055,0.04,VWS V14.01,2013-05-02 20:21:00,
2013-05-02 16:26:00,58.2,55.0,30.25,NNE,26,4.0,5.0,89,0.00,,OVC055,0.04,VWS V14.01,2013-05-02 20:26:00,
2013-05-02 16:30:00,58.2,55.0,30.25,NE,43,2.0,5.0,89,0.00,,OVC055,0.04,VWS V14.01,2013-05-02 20:30:00,
2013-05-02 16:31:00,58.1,55.2,30.25,NE,43,2.0,3.0,90,0.00,,OVC055,0.04,VWS V14.01,2013-05-02 20:31:00,
2013-05-02 16:36:00,58.0,55.4,30.24,NE,43,3.0,3.0,91,0.00,,OVC055,0.04,VWS V14.01,2013-05-02 20:36:00,
2013-05-02 16:41:00,58.1,55.2,30.25,NE,53,3.0,5.0,90,0.00,,OVC055,0.04,VWS V14.01,2013-05-02 20:41:00,
2013-05-02 16:46:00,58.0,55.1,30.24,NE,47,4.0,5.0,90,0.00,,OVC055,0.04,VWS V14.01,2013-05-02 20:46:00,
2013-05-02 16:51:00,57.8,55.2,30.24,NNE,28,4.0,7.0,91,0.00,,OVC055,0.04,VWS V14.01,2013-05-02 20:51:00,
2013-05-02 16:56:00,57.6,55.3,30.24,NNE,31,4.0,8.0,92,0.00,,OVC055,0.04,VWS V14.01,2013-05-02 20:56:00,
2013-05-02 17:00:00,57.4,55.1,30.24,NNE,26,2.0,8.0,92,0.00,,OVC055,0.04,VWS V14.01,2013-05-02 21:00:00,
2013-05-02 17:01:00,57.3,54.7,30.24,NNE,27,3.0,7.0,91,0.00,,OVC055,0.04,VWS V14.01,2013-05-02 21:01:00,
2013-05-02 17:06:00,57.3,55.3,30.24,NNE,25,4.0,7.0,93,0.00,,OVC055,0.04,VWS V14.01,2013-05-02 21:06:00,
2013-05-02 17:11:00,57.3,55.3,30.24,NE,52,2.0,7.0,93,0.00,,OVC055,0.04,VWS V14.01,2013-05-02 21:11:00,
2013-05-02 17:16:00,57.3,55.0,30.24,NNE,17,2.0,7.0,92,0.00,,OVC055,0.04,VWS V14.01,2013-05-02 21:16:00,
2013-05-02 17:21:00,57.3,55.0,30.24,NNE,22,3.0,7.0,92,0.00,,OVC055,0.04,VWS V14.01,2013-05-02 21:21:00,
2013-05-02 17:26:00,57.3,55.3,30.24,NNE,28,2.0,7.0,93,0.00,,OVC055,0.04,VWS V14.01,2013-05-02 21:26:00,
2013-05-02 17:30:00,57.3,55.3,30.24,NNE,28,0.0,7.0,93,0.00,,OVC055,0.04,VWS V14.01,2013-05-02 21:30:00,
2013-05-02 17:31:00,57.3,55.3,30.24,NNE,28,0.0,2.0,93,0.00,,OVC055,0.04,VWS V14.01,2013-05-02 21:31:00,
2013-05-02 17:36:00,57.3,55.3,30.24,NNE,28,1.0,3.0,93,0.00,,OVC055,0.04,VWS V14.01,2013-05-02 21:36:00,
2013-05-02 17:40:00,57.2,55.2,30.23,NNE,29,2.0,4.0,93,0.00,,OVC055,0.04,VWS V14.01,2013-05-02 21:40:00,
2013-05-02 17:45:00,57.2,55.5,30.23,NNE,31,3.0,5.0,94,0.00,,OVC055,0.04,VWS V14.01,2013-05-02 21:45:00,
2013-05-02 17:50:00,57.1,55.1,30.23,NE,34,1.0,6.0,93,0.00,,OVC055,0.04,VWS V14.01,2013-05-02 21:50:00,
2013-05-02 17:55:00,57.1,55.4,30.23,NE,34,0.0,6.0,94,0.00,,OVC055,0.04,VWS V14.01,2013-05-02 21:55:00,
2013-05-02 18:00:00,56.9,55.2,30.24,NE,34,0.0,1.0,94,0.00,,OVC055,0.04,VWS V14.01,2013-05-02 22:00:00,
2013-05-02 18:05:00,56.8,55.1,30.23,NE,34,0.0,4.0,94,0.00,,OVC055,0.04,VWS V14.01,2013-05-02 22:05:00,
2013-05-02 18:10:00,56.7,55.0,30.23,NE,34,1.0,4.0,94,0.00,,OVC055,0.04,VWS V14.01,2013-05-02 22:10:00,
2013-05-02 18:15:00,56.6,55.2,30.23,NE,34,0.0,4.0,95,0.00,,OVC055,0.04,VWS V14.01,2013-05-02 22:15:00,
2013-05-02 18:20:00,56.6,55.5,30.23,NE,38,0.0,4.0,96,0.00,,OVC055,0.04,VWS V14.01,2013-05-02 22:20:00,
2013-05-02 18:25:00,56.4,55.0,30.23,NNE,24,2.0,4.0,95,0.00,,OVC055,0.04,VWS V14.01,2013-05-02 22:25:00,
2013-05-02 18:30:00,56.3,55.2,30.23,NNE,26,0.0,1.0,96,0.00,,OVC055,0.04,VWS V14.01,2013-05-02 22:30:00,
2013-05-02 18:35:00,56.3,55.2,30.23,NNE,26,1.0,3.0,96,0.00,,OVC055,0.04,VWS V14.01,2013-05-02 22:35:00,
2013-05-02 18:40:00,56.3,55.5,30.23,NNE,22,3.0,4.0,97,0.00,,OVC055,0.04,VWS V14.01,2013-05-02 22:40:00,
2013-05-02 18:45:00,56.3,55.5,30.23,NE,36,1.0,5.0,97,0.00,,OVC055,0.04,VWS V14.01,2013-05-02 22:45:00,
2013-05-02 18:50:00,56.2,55.4,30.23,NNE,26,3.0,5.0,97,0.00,,OVC055,0.04,VWS V14.01,2013-05-02 22:50:00,
2013-05-02 18:55:00,56.2,55.4,30.23,NE,46,5.0,8.0,97,0.00,,OVC055,0.04,VWS V14.01,2013-05-02 22:55:00,
2013-05-02 19:00:00,56.1,55.3,30.23,NNE,12,4.0,5.0,97,0.00,,OVC055,0.04,VWS V14.01,2013-05-02 23:00:00,
2013-05-02 19:05:00,56.1,55.3,30.23,NNE,23,4.0,5.0,97,0.00,,OVC055,0.04,VWS V14.01,2013-05-02 23:05:00,
2013-05-02 19:10:00,56.1,55.3,30.23,NNE,26,2.0,5.0,97,0.00,,OVC055,0.04,VWS V14.01,2013-05-02 23:10:00,
2013-05-02 19:15:00,56.2,55.1,30.23,NNE,26,2.0,5.0,96,0.00,,OVC055,0.04,VWS V14.01,2013-05-02 23:15:00,
2013-05-02 19:20:00,56.2,55.1,30.23,NNE,28,2.0,5.0,96,0.00,,OVC055,0.04,VWS V14.01,2013-05-02 23:20:00,
2013-05-02 19:25:00,56.2,55.1,30.23,NE,40,4.0,5.0,96,0.00,,OVC055,0.04,VWS V14.01,2013-05-02 23:25:00,
2013-05-02 19:30:00,56.2,55.1,30.23,NNE,32,3.0,3.0,96,0.00,,OVC055,0.04,VWS V14.01,2013-05-02 23:30:00,
2013-05-02 19:35:00,56.2,55.1,30.23,NNE,31,2.0,5.0,96,0.00,,OVC055,0.04,VWS V14.01,2013-05-02 23:35:00,
2013-05-02 19:40:00,56.2,55.1,30.24,NE,40,2.0,5.0,96,0.00,,OVC055,0.04,VWS V14.01,2013-05-02 23:40:00,
2013-05-02 19:45:00,56.2,55.1,30.24,NE,40,0.0,5.0,96,0.00,,OVC055,0.04,VWS V14.01,2013-05-02 23:45:00,
2013-05-02 19:50:00,56.2,55.1,30.24,NE,40,2.0,5.0,96,0.00,,OVC055,0.04,VWS V14.01,2013-05-02 23:50:00,
2013-05-02 19:55:00,56.1,55.0,30.24,NNE,13,5.0,5.0,96,0.00,,OVC055,0.04,VWS V14.01,2013-05-02 23:55:00,
2013-05-02 20:00:00,56.0,54.9,30.24,North,360,3.0,3.0,96,0.00,,OVC055,0.04,VWS V14.01,2013-05-03 00:00:00,
2013-05-02 20:05:00,55.9,54.8,30.24,NE,34,4.0,6.0,96,0.00,,OVC055,0.04,VWS V14.01,2013-05-03 00:05:00,
2013-05-02 20:10:00,55.9,55.1,30.24,NNE,21,2.0,6.0,97,0.00,,OVC055,0.04,VWS V14.01,2013-05-03 00:10:00,
2013-05-02 20:15:00,55.8,55.0,30.24,NNE,29,3.0,6.0,97,0.00,,OVC055,0.04,VWS V14.01,2013-05-03 00:15:00,
2013-05-02 20:20:00,55.7,54.9,30.24,NE,38,3.0,6.0,97,0.00,,OVC055,0.04,VWS V14.01,2013-05-03 00:20:00,
2013-05-02 20:25:00,55.7,54.9,30.24,NNE,31,1.0,6.0,97,0.00,,OVC055,0.04,VWS V14.01,2013-05-03 00:25:00,
2013-05-02 20:30:00,55.7,54.9,30.24,NNE,19,3.0,5.0,97,0.00,,OVC055,0.04,VWS V14.01,2013-05-03 00:30:00,
2013-05-02 20:35:00,55.7,54.9,30.24,NNE,30,4.0,7.0,97,0.00,,OVC055,0.04,VWS V14.01,2013-05-03 00:35:00,
2013-05-02 20:40:00,55.7,54.9,30.24,NNE,26,3.0,7.0,97,0.00,,OVC055,0.04,VWS V14.01,2013-05-03 00:40:00,
2013-05-02 20:45:00,55.5,54.7,30.24,NE,35,3.0,7.0,97,0.00,,OVC055,0.04,VWS V14.01,2013-05-03 00:45:00,
2013-05-02 20:50:00,55.5,54.7,30.24,NE,34,4.0,7.0,97,0.00,,OVC055,0.04,VWS V14.01,2013-05-03 00:50:00,
2013-05-02 20:55:00,55.5,54.7,30.24,NNE,32,4.0,7.0,97,0.00,,OVC055,0.04,VWS V14.01,2013-05-03 00:55:00,
2013-05-02 21:00:00,55.4,54.6,30.24,NNE,30,5.0,5.0,97,0.00,,OVC055,0.04,VWS V14.01,2013-05-03 01:00:00,
2013-05-02 21:05:00,55.4,54.6,30.24,NNE,19,4.0,5.0,97,0.00,,OVC055,0.04,VWS V14.01,2013-05-03 01:05:00,
2013-05-02 21:10:00,55.5,54.7,30.24,North,360,4.0,5.0,97,0.00,,OVC055,0.04,VWS V14.01,2013-05-03 01:10:00,
2013-05-02 21:15:00,55.4,54.6,30.24,NNE,13,5.0,6.0,97,0.00,,OVC055,0.04,VWS V14.01,2013-05-03 01:15:00,
2013-05-02 21:20:00,55.4,54.3,30.25,NNE,30,3.0,8.0,96,0.00,,OVC055,0.04,VWS V14.01,2013-05-03 01:20:00,
2013-05-02 21:25:00,55.4,54.3,30.25,NNE,30,4.0,8.0,96,0.00,,OVC055,0.04,VWS V14.01,2013-05-03 01:25:00,
2013-05-02 21:30:00,55.4,54.3,30.25,NNE,33,3.0,4.0,96,0.00,,OVC055,0.04,VWS V14.01,2013-05-03 01:30:00,
2013-05-02 21:35:00,55.4,54.3,30.25,NNE,32,3.0,4.0,96,0.00,,OVC055,0.04,VWS V14.01,2013-05-03 01:35:00,
2013-05-02 21:40:00,55.3,54.5,30.25,NNE,32,2.0,4.0,97,0.00,,OVC055,0.04,VWS V14.01,2013-05-03 01:40:00,
2013-05-02 21:45:00,55.3,54.5,30.25,NNE,26,2.0,4.0,97,0.00,,OVC055,0.04,VWS V14.01,2013-05-03 01:45:00,
2013-05-02 21:50:00,55.3,54.5,30.25,NE,34,2.0,4.0,97,0.00,,OVC055,0.04,VWS V14.01,2013-05-03 01:50:00,
2013-05-02 21:55:00,55.3,54.5,30.25,NNE,19,3.0,5.0,97,0.00,,OVC055,0.04,VWS V14.01,2013-05-03 01:55:00,
2013-05-02 22:00:00,55.2,54.4,30.25,NNE,30,4.0,4.0,97,0.00,,OVC055,0.04,VWS V14.01,2013-05-03 02:00:00,
2013-05-02 22:05:00,55.2,54.4,30.25,NNE,24,2.0,4.0,97,0.00,,OVC055,0.04,VWS V14.01,2013-05-03 02:05:00,
2013-05-02 22:10:00,55.1,54.3,30.25,NNE,30,2.0,4.0,97,0.00,,OVC055,0.04,VWS V14.01,2013-05-03 02:10:00,
2013-05-02 22:15:00,55.1,54.3,30.25,NNE,30,2.0,4.0,97,0.00,,OVC055,0.04,VWS V14.01,2013-05-03 02:15:00,
2013-05-02 22:20:00,55.1,54.3,30.25,NNE,27,4.0,5.0,97,0.00,,OVC055,0.04,VWS V14.01,2013-05-03 02:20:00,
2013-05-02 22:25:00,55.0,54.2,30.25,NNE,28,1.0,5.0,97,0.00,,OVC055,0.04,VWS V14.01,2013-05-03 02:25:00,
2013-05-02 22:30:00,55.1,54.3,30.25,NNE,28,2.0,2.0,97,0.00,,OVC055,0.04,VWS V14.01,2013-05-03 02:30:00,
2013-05-02 22:35:00,55.1,54.3,30.25,NNE,28,1.0,3.0,97,0.00,,OVC055,0.04,VWS V14.01,2013-05-03 02:35:00,
2013-05-02 22:40:00,55.1,54.0,30.25,North,5,3.0,4.0,96,0.00,,OVC055,0.04,VWS V14.01,2013-05-03 02:40:00,
2013-05-02 22:45:00,55.1,54.0,30.25,North,10,3.0,6.0,96,0.00,,OVC055,0.04,VWS V14.01,2013-05-03 02:45:00,
2013-05-02 22:50:00,55.1,54.0,30.25,NNE,31,2.0,6.0,96,0.00,,OVC055,0.04,VWS V14.01,2013-05-03 02:50:00,
2013-05-02 22:55:00,55.2,53.8,30.24,NE,34,3.0,6.0,95,0.00,,OVC055,0.04,VWS V14.01,2013-05-03 02:55:00,
2013-05-02 23:00:00,55.2,53.8,30.24,NE,42,3.0,3.0,95,0.00,,OVC055,0.04,VWS V14.01,2013-05-03 03:00:00,
2013-05-02 23:05:00,55.1,53.7,30.24,NE,34,4.0,4.0,95,0.00,,OVC055,0.04,VWS V14.01,2013-05-03 03:05:00,
2013-05-02 23:10:00,55.1,53.7,30.24,NNE,22,3.0,6.0,95,0.00,,OVC055,0.04,VWS V14.01,2013-05-03 03:10:00,
2013-05-02 23:15:00,55.1,54.0,30.24,NE,34,3.0,6.0,96,0.00,,OVC055,0.04,VWS V14.01,2013-05-03 03:15:00,
2013-05-02 23:20:00,55.1,54.0,30.24,NNE,17,1.0,6.0,96,0.00,,OVC055,0.04,VWS V14.01,2013-05-03 03:20:00,
2013-05-02 23:25:00,55.0,53.9,30.24,NNE,17,0.0,6.0,96,0.00,,OVC055,0.04,VWS V14.01,2013-05-03 03:25:00,
2013-05-02 23:30:00,54.9,54.1,30.23,NNE,18,2.0,2.0,97,0.00,,OVC055,0.04,VWS V14.01,2013-05-03 03:30:00,
2013-05-02 23:35:00,54.8,53.7,30.24,NNE,18,1.0,2.0,96,0.00,,OVC055,0.04,VWS V14.01,2013-05-03 03:35:00,
2013-05-02 23:40:00,54.8,54.0,30.24,NNE,13,2.0,3.0,97,0.00,,OVC055,0.04,VWS V14.01,2013-05-03 03:40:00,
2013-05-02 23:45:00,54.7,53.9,30.23,NNE,24,2.0,7.0,97,0.01,,OVC055,0.05,VWS V14.01,2013-05-03 03:45:00,
2013-05-02 23:50:00,54.6,53.8,30.23,NE,43,3.0,7.0,97,0.01,,OVC055,0.05,VWS V14.01,2013-05-03 03:50:00,
2013-05-02 23:55:00,54.5,53.7,30.23,NNE,33,3.0,7.0,97,0.01,,OVC055,0.05,VWS V14.01,2013-05-03 03:55:00,